GW6464 Weather Reports


time (UTC)temp
F
wind
direction
speed
knots
gust
knots
rain 1hr
in
rain 24hr
in
rain mn
in
humidity
%
barometer
mb
20260502162007 69 15 7.0 11.3 0.00 0.00 0.00 13 1017.5
20260502161513 69 360 5.2 10.4 0.00 0.00 0.00 13 1017.5
20260502161009 69 342 5.2 9.6 0.00 0.00 0.00 11 1017.5
20260502160513 69 340 6.1 9.6 0.00 0.00 0.00 12 1017.5
20260502152007 68 316 1.7 4.3 0.00 0.00 0.00 14 1017.6
20260502151549 67 340 2.6 7.0 0.00 0.00 0.00 15 1017.6
20260502151007 67 328 2.6 7.0 0.00 0.00 0.00 13 1017.7
20260502150506 67 246 0.9 7.0 0.00 0.00 0.00 13 1017.7
20260502130505 54 238 0.9 3.5 0.00 0.00 0.00 24 1017.5
20260502123502 51 245 0.9 2.6 0.00 0.00 0.00 25 1017.5
20260502123010 51 245 1.7 4.3 0.00 0.00 0.00 24 1017.5
20260502122506 51 244 0.9 4.3 0.00 0.00 0.00 24 1017.4
20260502122003 51 244 0.9 2.6 0.00 0.00 0.00 25 1017.4
20260502121508 51 245 0.9 2.6 0.00 0.00 0.00 24 1017.3
20260502121007 51 245 0.9 2.6 0.00 0.00 0.00 23 1017.3
20260502120508 51 249 0.9 2.6 0.00 0.00 0.00 24 1017.3
20260502115503 51 252 0.9 3.5 0.00 0.00 0.00 23 1017.4
20260502115006 50 257 0.9 2.6 0.00 0.00 0.00 24 1017.4
20260502114504 50 258 0.9 2.6 0.00 0.00 0.00 23 1017.4
20260502114003 50 252 0.9 2.6 0.00 0.00 0.00 24 1017.3
20260502113506 50 252 0.9 2.6 0.00 0.00 0.00 25 1017.3
20260502113029 50 252 0.9 2.6 0.00 0.00 0.00 25 1017.2
20260502112503 49 252 0.9 1.7 0.00 0.00 0.00 25 1017.3
20260502112006 49 252 0.0 1.7 0.00 0.00 0.00 25 1017.3
20260502111516 49 252 0.0 0.9 0.00 0.00 0.00 26 1017.3
20260502111011 49 252 0.0 1.7 0.00 0.00 0.00 26 1017.4
20260502110503 49 252 0.0 1.7 0.00 0.00 0.00 26 1017.4
20260502110013 49 252 0.0 3.5 0.00 0.00 0.00 26 1017.5
20260502105507 49 252 0.0 3.5 0.00 0.00 0.00 26 1017.5
20260502105004 49 242 0.0 3.5 0.00 0.00 0.00 27 1017.5
20260502104507 49 242 0.0 2.6 0.00 0.00 0.00 27 1017.4
20260502104010 49 242 0.9 2.6 0.00 0.00 0.00 27 1017.4
20260502103507 49 242 0.0 1.7 0.00 0.00 0.00 27 1017.5
20260502103005 49 242 0.0 3.5 0.00 0.00 0.00 28 1017.6
20260502102503 49 242 0.9 3.5 0.00 0.00 0.00 26 1017.6
20260502102007 49 238 0.0 3.5 0.00 0.00 0.00 28 1017.6
20260502101505 49 239 0.0 4.3 0.00 0.00 0.00 27 1017.6
20260502101004 48 237 1.7 4.3 0.00 0.00 0.00 28 1017.7
20260502100507 47 236 2.6 4.3 0.00 0.00 0.00 29 1017.7
20260502091512 45 177 0.0 2.6 0.00 0.00 0.00 33 1017.8
20260502091010 44 177 0.0 2.6 0.00 0.00 0.00 32 1017.9
20260502090515 44 176 0.0 1.7 0.00 0.00 0.00 31 1017.9
20260502071508 46 213 0.9 1.7 0.00 0.00 0.00 35 1019.1
20260502071009 46 213 0.0 1.7 0.00 0.00 0.00 35 1019.1
20260502070509 46 213 0.0 1.7 0.00 0.00 0.00 32 1019.1
20260502070039 46 213 0.9 1.7 0.00 0.00 0.00 32 1019.2
20260502065507 46 213 0.9 2.6 0.00 0.00 0.00 34 1019.3
20260502065007 46 213 0.0 2.6 0.00 0.00 0.00 35 1019.2
20260502064523 46 204 0.0 2.6 0.00 0.00 0.00 35 1019.3
20260502064011 46 204 0.9 2.6 0.00 0.00 0.00 36 1019.3
20260502063506 46 204 0.9 1.7 0.00 0.00 0.00 35 1019.3
20260502063033 46 204 0.0 2.6 0.00 0.00 0.00 35 1019.3
20260502062507 46 204 0.0 2.6 0.00 0.00 0.00 36 1019.3
20260502062006 46 204 0.9 2.6 0.00 0.00 0.00 36 1019.3
20260502061517 46 203 0.9 1.7 0.00 0.00 0.00 36 1019.3
20260502061010 46 203 0.0 1.7 0.00 0.00 0.00 36 1019.3
20260502060506 46 204 0.0 0.9 0.00 0.00 0.00 36 1019.3
20260502060014 46 204 0.0 2.6 0.00 0.00 0.00 37 1019.3
20260502055509 46 204 0.0 2.6 0.00 0.00 0.00 37 1019.4
20260502055006 46 322 0.0 0.9 0.00 0.00 0.00 38 1019.5
20260502054526 46 322 0.0 0.0 0.00 0.00 0.00 37 1019.5
20260502054007 46 322 0.0 0.0 0.00 0.00 0.00 37 1019.5
20260502053506 46 322 0.0 0.9 0.00 0.00 0.00 38 1019.5
20260502053005 46 322 0.0 0.9 0.00 0.00 0.00 38 1019.5
20260502052508 46 322 0.0 1.7 0.00 0.00 0.00 38 1019.5
20260502052009 47 322 0.0 1.7 0.00 0.00 0.00 37 1019.6
20260502051505 47 322 0.0 1.7 0.00 0.00 0.00 38 1019.5
20260502051008 47 322 0.9 1.7 0.00 0.00 0.00 38 1019.5
20260502050510 47 322 0.9 1.7 0.00 0.00 0.00 36 1019.6
20260502050035 48 323 0.9 1.7 0.00 0.00 0.00 36 1019.6
20260502045504 48 323 0.0 0.9 0.00 0.00 0.00 35 1019.6
20260502045007 49 323 0.0 0.0 0.00 0.00 0.00 35 1019.6
20260502044518 49 323 0.0 0.0 0.00 0.00 0.00 34 1019.7
20260502044003 49 323 0.0 1.7 0.00 0.00 0.00 35 1019.8
20260502043506 49 323 0.0 1.7 0.00 0.00 0.00 35 1019.8
20260502043021 49 323 0.0 1.7 0.00 0.00 0.00 33 1019.8
20260502042511 49 323 0.0 0.9 0.00 0.00 0.00 34 1019.8
20260502042003 49 323 0.0 1.7 0.00 0.00 0.00 34 1019.9
20260502041522 49 323 0.0 2.6 0.00 0.00 0.00 35 1019.9
20260502041007 49 323 0.0 2.6 0.00 0.00 0.00 34 1019.9
20260502040507 49 323 0.9 2.6 0.00 0.00 0.00 33 1019.8
20260502040011 50 323 0.0 1.7 0.00 0.00 0.00 33 1019.8
20260502035505 50 323 0.0 2.6 0.00 0.00 0.00 33 1019.9
20260502035008 51 323 0.0 2.6 0.00 0.00 0.00 30 1019.9
20260502034512 52 323 0.9 2.6 0.00 0.00 0.00 30 1019.8
20260502034008 51 323 0.9 2.6 0.00 0.00 0.00 30 1019.8
20260502033507 51 324 0.9 2.6 0.00 0.00 0.00 32 1019.8
20260502033029 50 324 0.9 2.6 0.00 0.00 0.00 33 1019.9
20260502032505 50 325 0.9 2.6 0.00 0.00 0.00 33 1019.9
20260502032008 50 327 0.0 2.6 0.00 0.00 0.00 34 1019.8
20260502031522 50 327 0.9 2.6 0.00 0.00 0.00 34 1019.9
20260502031006 51 327 0.9 2.6 0.00 0.00 0.00 32 1019.8
20260502030509 52 343 0.9 2.6 0.00 0.00 0.00 31 1019.7
20260502030020 52 343 0.9 2.6 0.00 0.00 0.00 29 1019.6
20260502025506 52 344 0.9 2.6 0.00 0.00 0.00 31 1019.6
20260502025006 52 345 0.0 1.7 0.00 0.00 0.00 30 1019.5
20260502024529 54 348 0.9 1.7 0.00 0.00 0.00 28 1019.3
20260502024009 54 348 0.0 1.7 0.00 0.00 0.00 25 1019.3
20260502023510 54 348 0.0 1.7 0.00 0.00 0.00 26 1019.3
20260502023013 55 348 0.9 1.7 0.00 0.00 0.00 25 1019.3
20260502022508 56 348 0.0 0.9 0.00 0.00 0.00 23 1019.3
20260502022011 56 348 0.0 0.9 0.00 0.00 0.00 23 1019.2
20260502021507 57 348 0.0 0.9 0.00 0.00 0.00 23 1019.2
20260502021007 56 348 0.0 0.9 0.00 0.00 0.00 24 1019.1
20260502020508 57 348 0.0 0.9 0.00 0.00 0.00 24 1019.2
20260502020024 57 348 0.0 0.9 0.00 0.00 0.00 25 1019.2
20260502015507 58 348 0.0 0.9 0.00 0.00 0.00 24 1019.3
20260502015008 58 348 0.0 1.7 0.00 0.00 0.00 25 1019.2
20260502014525 58 348 0.0 2.6 0.00 0.00 0.00 25 1019.3
20260502014010 59 348 0.9 2.6 0.00 0.00 0.00 24 1019.2
20260502013506 59 349 0.9 2.6 0.00 0.00 0.00 25 1019.1
20260502013020 59 351 1.7 2.6 0.00 0.00 0.00 25 1019.1
20260502012506 59 352 1.7 3.5 0.00 0.00 0.00 25 1019.1
20260502012008 59 348 1.7 3.5 0.00 0.00 0.00 24 1019.1
20260502011520 60 352 1.7 5.2 0.00 0.00 0.00 22 1019.1
20260502011009 60 360 1.7 5.2 0.00 0.00 0.00 24 1019.1
20260502010508 60 352 1.7 4.3 0.00 0.00 0.00 24 1019.1
20260502010018 60 352 1.7 6.1 0.00 0.00 0.00 23 1019.2
20260502005507 60 5 1.7 6.1 0.00 0.00 0.00 23 1019.2
20260502005010 61 5 2.6 7.0 0.00 0.00 0.00 23 1019.1
20260502004514 61 5 2.6 7.0 0.00 0.00 0.00 21 1019.1
20260502004006 61 344 3.5 6.1 0.00 0.00 0.00 19 1019.1
20260502003508 62 360 2.6 7.0 0.00 0.00 0.00 19 1019.0
20260502003026 62 17 2.6 7.0 0.00 0.00 0.00 19 1019.1
20260502002511 62 352 3.5 7.0 0.00 0.00 0.00 18 1019.1
20260502002016 63 346 3.5 7.0 0.00 0.00 0.00 16 1019.1
20260502001526 63 14 2.6 5.2 0.00 0.00 0.00 15 1019.1
20260502001008 63 360 2.6 7.8 0.00 0.00 0.00 20 1019.1
20260502000511 63 28 3.5 7.8 0.00 0.00 0.00 16 1019.1
20260502000039 63 342 3.5 10.4 0.00 0.00 0.00 15 1019.1
20260501235511 63 342 4.3 10.4 0.00 0.00 0.00 18 1019.2
20260501235007 63 360 5.2 10.4 0.00 0.00 0.00 15 1019.2
20260501234523 64 340 2.6 9.6 0.00 0.00 0.00 15 1019.2
20260501234007 63 360 5.2 7.8 0.00 0.00 0.00 16 1019.2
20260501233503 63 5 4.3 8.7 0.00 0.00 0.00 18 1019.1
20260501233019 63 5 5.2 10.4 0.00 0.00 0.00 18 1019.1
20260501232516 64 348 5.2 11.3 0.00 0.00 0.00 16 1019.1
20260501232012 64 339 7.0 11.3 0.00 0.00 0.00 17 1019.0
20260501231516 64 352 5.2 9.6 0.00 0.00 0.00 15 1019.0
20260501231010 64 360 3.5 8.7 0.00 0.00 0.00 20 1019.0
20260501230511 64 340 2.6 8.7 0.00 0.00 0.00 15 1019.1
20260501230026 64 324 3.5 9.6 0.00 0.00 0.00 14 1019.1
20260501225507 64 11 3.5 11.3 0.00 0.00 0.00 19 1019.1
20260501225008 64 352 6.1 11.3 0.00 0.00 0.00 17 1019.2
20260501224539 65 352 2.6 10.4 0.00 0.00 0.00 14 1019.2
20260501224005 65 12 5.2 8.7 0.00 0.00 0.00 16 1019.2
20260501223506 64 352 3.5 12.2 0.00 0.00 0.00 14 1019.2
20260501223028 64 344 6.1 12.2 0.00 0.00 0.00 16 1019.3
20260501222510 64 352 7.8 10.4 0.00 0.00 0.00 15 1019.2
20260501222009 65 263 2.6 9.6 0.00 0.00 0.00 14 1019.2
20260501221524 64 306 4.3 9.6 0.00 0.00 0.00 14 1019.3
20260501221011 64 323 3.5 10.4 0.00 0.00 0.00 15 1019.3
20260501220507 64 344 6.1 12.2 0.00 0.00 0.00 16 1019.3
20260501220030 64 344 6.1 14.8 0.00 0.00 0.00 19 1019.3
20260501215516 64 352 5.2 14.8 0.00 0.00 0.00 18 1019.3
20260501215008 64 5 3.5 11.3 0.00 0.00 0.00 15 1019.4
20260501214519 64 330 6.1 13.0 0.00 0.00 0.00 16 1019.4
20260501214010 64 5 7.8 13.0 0.00 0.00 0.00 17 1019.4
20260501213510 64 18 5.2 9.6 0.00 0.00 0.00 18 1019.4
20260501213025 64 345 3.5 8.7 0.00 0.00 0.00 16 1019.4
20260501212506 64 321 2.6 10.4 0.00 0.00 0.00 16 1019.5
20260501212007 64 5 5.2 12.2 0.00 0.00 0.00 15 1019.5
20260501211529 63 349 6.1 12.2 0.00 0.00 0.00 17 1019.6
20260501211006 64 5 6.1 13.0 0.00 0.00 0.00 14 1019.6
20260501210503 64 5 5.2 14.8 0.00 0.00 0.00 19 1019.6
20260501210006 64 13 10.4 14.8 0.00 0.00 0.00 17 1019.6
20260501205503 64 17 2.6 12.2 0.00 0.00 0.00 17 1019.6
20260501205005 64 346 7.0 12.2 0.00 0.00 0.00 18 1019.6
20260501204506 63 352 4.3 12.2 0.00 0.00 0.00 16 1019.6
20260501204003 64 13 7.0 13.9 0.00 0.00 0.00 18 1019.7
20260501203502 64 351 9.6 13.9 0.00 0.00 0.00 18 1019.7
20260501203003 64 331 4.3 8.7 0.00 0.00 0.00 16 1019.6
20260501202504 63 338 4.3 13.0 0.00 0.00 0.00 15 1019.6
20260501202003 63 360 5.2 13.0 0.00 0.00 0.00 15 1019.7
20260501201509 63 352 8.7 13.0 0.00 0.00 0.00 16 1019.7
20260501201006 63 5 6.1 13.9 0.00 0.00 0.00 17 1019.7
20260501200504 64 327 7.8 13.9 0.00 0.00 0.00 17 1019.7
20260501200013 63 272 3.5 12.2 0.00 0.00 0.00 15 1019.7
20260501195504 64 322 7.0 12.2 0.00 0.00 0.00 16 1019.7
20260501195002 63 360 6.1 13.9 0.00 0.00 0.00 18 1019.6
20260501194512 63 27 7.0 14.8 0.00 0.00 0.00 17 1019.7
20260501194004 63 5 8.7 14.8 0.00 0.00 0.00 20 1019.6
20260501193503 63 11 9.6 14.8 0.00 0.00 0.00 19 1019.6
20260501193010 63 352 9.6 14.8 0.00 0.00 0.00 15 1019.6
20260501192505 63 338 7.8 13.9 0.00 0.00 0.00 18 1019.7
20260501192003 63 327 4.3 12.2 0.00 0.00 0.00 18 1019.6
20260501191507 63 330 5.2 12.2 0.00 0.00 0.00 17 1019.7
20260501191010 63 11 7.0 12.2 0.00 0.00 0.00 19 1019.7
20260501190504 63 333 5.2 11.3 0.00 0.00 0.00 19 1019.8
20260501190007 63 338 5.2 14.8 0.00 0.00 0.00 16 1019.9
20260501185508 62 360 8.7 14.8 0.00 0.00 0.00 18 1019.8
20260501185005 62 337 7.0 14.8 0.00 0.00 0.00 17 1019.9
20260501184510 63 292 9.6 13.9 0.00 0.00 0.00 17 1019.9
20260501184005 62 330 4.3 15.6 0.00 0.00 0.00 20 1019.9
20260501183504 62 332 7.0 15.6 0.00 0.00 0.00 19 1019.8
20260501183020 63 5 9.6 15.6 0.00 0.00 0.00 17 1019.9
20260501182505 62 315 7.8 13.9 0.00 0.00 0.00 17 1020.0
20260501182008 63 323 6.1 13.9 0.00 0.00 0.00 19 1020.0
20260501181512 62 320 7.8 14.8 0.00 0.00 0.00 18 1020.0
20260501181006 62 310 6.1 14.8 0.00 0.00 0.00 18 1020.0
20260501180506 62 326 4.3 12.2 0.00 0.00 0.00 17 1019.9
20260501180012 62 298 5.2 13.0 0.00 0.00 0.00 19 1020.0
20260501175506 62 338 7.0 13.0 0.00 0.00 0.00 19 1020.0
20260501175003 62 319 4.3 14.8 0.00 0.00 0.00 19 1019.9
20260501174513 61 325 7.8 14.8 0.00 0.00 0.00 19 1019.9
20260501174006 62 17 9.6 14.8 0.00 0.00 0.00 18 1020.0
20260501173506 62 348 5.2 13.0 0.00 0.00 0.00 17 1019.9
20260501173009 61 340 7.8 13.0 0.00 0.00 0.00 18 1020.0
20260501172505 62 325 4.3 12.2 0.00 0.00 0.00 16 1019.9
20260501172007 62 295 6.1 15.6 0.00 0.00 0.00 17 1019.9
20260501171508 62 292 10.4 15.6 0.00 0.00 0.00 19 1019.9
20260501171006 61 15 9.6 13.9 0.00 0.00 0.00 23 1019.9
20260501170506 61 335 7.0 15.6 0.00 0.00 0.00 17 1019.9
20260501170015 61 330 5.2 15.6 0.00 0.00 0.00 18 1019.8
20260501165504 61 347 7.8 13.9 0.00 0.00 0.00 20 1019.9
20260501165007 61 322 7.8 13.9 0.00 0.00 0.00 18 1019.9
20260501164512 61 9 6.1 13.9 0.00 0.00 0.00 21 1019.8
20260501164005 61 5 7.0 13.0 0.00 0.00 0.00 20 1019.8
20260501163506 61 360 5.2 13.0 0.00 0.00 0.00 22 1019.7
20260501163015 60 319 5.2 13.0 0.00 0.00 0.00 21 1019.7
20260501162506 59 352 3.5 11.3 0.00 0.00 0.00 24 1019.7